| time (UTC) | temp F | wind direction | speed knots | gust knots | rain 1hr in | rain 24hr in | rain mn in | humidity % | barometer mb |
| 20260509022054 | 56 | 157 | 0.0 | 0.0 | 0.00 | 0.01 | 0.01 | 79 | 1010.7 |
| 20260509021535 | 56 | 157 | 0.0 | 0.0 | 0.00 | 0.01 | 0.01 | 80 | 1010.9 |
| 20260509021054 | 56 | 157 | 0.0 | 0.0 | 0.00 | 0.01 | 0.01 | 79 | 1010.9 |
| 20260509020514 | 57 | 157 | 0.0 | 0.0 | 0.00 | 0.01 | 0.01 | 79 | 1010.9 |
| 20260509020045 | 57 | 157 | 0.0 | 3.5 | 0.00 | 0.01 | 0.01 | 78 | 1010.7 |
| 20260509015515 | 57 | 157 | 0.0 | 3.5 | 0.00 | 0.01 | 0.01 | 78 | 1010.7 |
| 20260509015044 | 56 | 277 | 0.0 | 2.6 | 0.00 | 0.01 | 0.01 | 78 | 1010.7 |
| 20260509014505 | 56 | 268 | 0.0 | 3.5 | 0.00 | 0.01 | 0.01 | 79 | 1010.6 |
| 20260509014036 | 56 | 268 | 0.0 | 0.9 | 0.00 | 0.01 | 0.01 | 79 | 1010.6 |
| 20260509013503 | 56 | 64 | 0.0 | 0.9 | 0.00 | 0.01 | 0.01 | 78 | 1010.6 |
| 20260509013040 | 57 | 64 | 0.0 | 0.0 | 0.00 | 0.01 | 0.01 | 79 | 1010.3 |
| 20260509012559 | 57 | 64 | 0.0 | 0.0 | 0.00 | 0.01 | 0.01 | 77 | 1010.3 |
| 20260509012029 | 57 | 64 | 0.0 | 0.0 | 0.00 | 0.01 | 0.01 | 77 | 1010.3 |
| 20260509011603 | 57 | 64 | 0.0 | 0.0 | 0.00 | 0.01 | 0.01 | 77 | 1010.3 |
| 20260509011032 | 57 | 64 | 0.0 | 0.0 | 0.00 | 0.01 | 0.01 | 76 | 1010.5 |
| 20260509010558 | 57 | 64 | 0.0 | 0.0 | 0.00 | 0.01 | 0.01 | 76 | 1010.5 |
| 20260509010033 | 57 | 64 | 0.0 | 0.9 | 0.00 | 0.01 | 0.01 | 74 | 1010.5 |
| 20260509005551 | 57 | 64 | 0.0 | 1.7 | 0.00 | 0.01 | 0.01 | 73 | 1010.5 |
| 20260509005026 | 57 | 66 | 0.0 | 1.7 | 0.00 | 0.01 | 0.01 | 75 | 1010.5 |
| 20260509004603 | 57 | 66 | 0.0 | 3.5 | 0.00 | 0.01 | 0.01 | 74 | 1010.3 |
| 20260509004009 | 57 | 65 | 0.0 | 3.5 | 0.00 | 0.01 | 0.01 | 73 | 1010.3 |
| 20260509003538 | 57 | 65 | 0.0 | 0.9 | 0.00 | 0.01 | 0.01 | 73 | 1010.3 |
| 20260509003017 | 57 | 65 | 0.0 | 0.9 | 0.00 | 0.01 | 0.01 | 73 | 1010.2 |
| 20260509002536 | 57 | 66 | 0.0 | 2.6 | 0.00 | 0.01 | 0.01 | 73 | 1010.2 |
| 20260509002002 | 57 | 66 | 0.0 | 2.6 | 0.00 | 0.01 | 0.01 | 73 | 1010.2 |
| 20260509001529 | 58 | 66 | 0.0 | 0.0 | 0.00 | 0.01 | 0.01 | 74 | 1010.2 |
| 20260509001056 | 58 | 67 | 0.0 | 0.0 | 0.00 | 0.01 | 0.01 | 74 | 1010.2 |
| 20260509000518 | 58 | 67 | 0.0 | 0.9 | 0.00 | 0.01 | 0.01 | 73 | 1010.2 |
| 20260509000052 | 58 | 67 | 0.0 | 0.0 | 0.00 | 0.01 | 0.01 | 72 | 1010.1 |
| 20260508235521 | 58 | 67 | 0.0 | 0.0 | 0.00 | 0.01 | 0.01 | 71 | 1010.1 |
| 20260508235050 | 59 | 67 | 0.0 | 2.6 | 0.00 | 0.01 | 0.01 | 72 | 1010.1 |
| 20260508234515 | 59 | 67 | 0.0 | 4.3 | 0.00 | 0.01 | 0.01 | 70 | 1010.1 |
| 20260508234036 | 59 | 67 | 0.0 | 2.6 | 0.00 | 0.01 | 0.01 | 70 | 1010.1 |
| 20260508233559 | 59 | 55 | 0.0 | 0.9 | 0.00 | 0.01 | 0.01 | 69 | 1010.1 |
| 20260508233029 | 59 | 58 | 0.0 | 0.0 | 0.00 | 0.01 | 0.01 | 70 | 1010.2 |
| 20260508232556 | 59 | 58 | 0.0 | 0.0 | 0.00 | 0.01 | 0.01 | 67 | 1010.2 |
| 20260508232023 | 60 | 58 | 0.0 | 0.0 | 0.00 | 0.01 | 0.01 | 67 | 1010.2 |
| 20260508231554 | 60 | 60 | 0.0 | 0.9 | 0.00 | 0.01 | 0.01 | 67 | 1010.2 |
| 20260508231015 | 60 | 60 | 0.0 | 0.9 | 0.00 | 0.01 | 0.01 | 67 | 1010.2 |
| 20260508230536 | 60 | 60 | 0.0 | 2.6 | 0.00 | 0.01 | 0.01 | 70 | 1010.2 |
| 20260508230008 | 60 | 60 | 0.0 | 2.6 | 0.00 | 0.01 | 0.01 | 65 | 1010.1 |
| 20260508225539 | 60 | 66 | 0.0 | 1.7 | 0.00 | 0.01 | 0.01 | 67 | 1010.1 |
| 20260508225003 | 60 | 81 | 0.0 | 4.3 | 0.00 | 0.01 | 0.01 | 66 | 1010.1 |
| 20260508224537 | 60 | 81 | 0.0 | 4.3 | 0.00 | 0.01 | 0.01 | 65 | 1010.2 |
| 20260508224059 | 61 | 83 | 0.0 | 0.0 | 0.00 | 0.01 | 0.01 | 68 | 1010.2 |
| 20260508224000 | 61 | 83 | 0.0 | 0.0 | 0.00 | 0.01 | 0.01 | 67 | 1010.2 |
| 20260508223535 | 61 | 83 | 0.0 | 0.9 | 0.00 | 0.01 | 0.01 | 69 | 1010.2 |
| 20260508223100 | 61 | 83 | 0.0 | 0.9 | 0.00 | 0.01 | 0.01 | 66 | 1010.2 |
| 20260508222520 | 61 | 83 | 0.0 | 1.7 | 0.00 | 0.01 | 0.01 | 69 | 1010.2 |
| 20260508222040 | 61 | 83 | 0.0 | 4.3 | 0.00 | 0.01 | 0.01 | 65 | 1010.2 |
| 20260508221509 | 61 | 84 | 0.0 | 2.6 | 0.00 | 0.01 | 0.01 | 67 | 1010.1 |
| 20260508221039 | 61 | 86 | 0.0 | 6.1 | 0.00 | 0.01 | 0.01 | 68 | 1010.1 |
| 20260508220505 | 61 | 86 | 0.0 | 6.1 | 0.00 | 0.01 | 0.01 | 64 | 1010.1 |
| 20260508220034 | 61 | 36 | 0.0 | 7.0 | 0.00 | 0.01 | 0.01 | 65 | 1010.1 |
| 20260508215600 | 61 | 292 | 0.0 | 7.0 | 0.00 | 0.01 | 0.01 | 64 | 1010.1 |
| 20260508215033 | 61 | 66 | 0.9 | 4.3 | 0.00 | 0.01 | 0.01 | 66 | 1010.1 |
| 20260508214607 | 61 | 126 | 0.0 | 3.5 | 0.00 | 0.01 | 0.01 | 65 | 1010.1 |
| 20260508214022 | 62 | 130 | 0.0 | 4.3 | 0.00 | 0.01 | 0.01 | 63 | 1010.1 |
| 20260508213550 | 62 | 142 | 0.0 | 4.3 | 0.00 | 0.01 | 0.01 | 63 | 1010.1 |
| 20260508213031 | 62 | 328 | 0.0 | 2.6 | 0.00 | 0.01 | 0.01 | 65 | 1010.1 |
| 20260508212553 | 62 | 328 | 0.0 | 2.6 | 0.00 | 0.01 | 0.01 | 63 | 1010.1 |
| 20260508212033 | 62 | 319 | 0.0 | 7.8 | 0.00 | 0.01 | 0.01 | 63 | 1010.1 |
| 20260508211551 | 62 | 289 | 0.9 | 12.2 | 0.00 | 0.01 | 0.01 | 62 | 1010.1 |
| 20260508211100 | 62 | 288 | 0.0 | 12.2 | 0.00 | 0.01 | 0.01 | 65 | 1010.1 |
| 20260508210525 | 62 | 84 | 0.0 | 5.2 | 0.00 | 0.01 | 0.01 | 63 | 1010.1 |
| 20260508210047 | 62 | 35 | 0.0 | 6.1 | 0.00 | 0.01 | 0.01 | 63 | 1010.2 |
| 20260508205510 | 62 | 268 | 0.0 | 5.2 | 0.00 | 0.01 | 0.01 | 62 | 1010.2 |
| 20260508205042 | 62 | 50 | 0.9 | 5.2 | 0.00 | 0.01 | 0.01 | 61 | 1010.2 |
| 20260508204520 | 62 | 336 | 0.0 | 5.2 | 0.00 | 0.01 | 0.01 | 61 | 1010.2 |
| 20260508204044 | 62 | 66 | 0.0 | 5.2 | 0.00 | 0.01 | 0.01 | 60 | 1010.2 |
| 20260508203518 | 62 | 350 | 0.0 | 13.0 | 0.00 | 0.01 | 0.01 | 61 | 1010.2 |
| 20260508203047 | 62 | 62 | 1.7 | 13.0 | 0.00 | 0.01 | 0.01 | 59 | 1010.4 |
| 20260508202522 | 62 | 46 | 0.0 | 7.0 | 0.00 | 0.01 | 0.01 | 61 | 1010.4 |
| 20260508202039 | 63 | 5 | 0.0 | 7.0 | 0.00 | 0.01 | 0.01 | 59 | 1010.4 |
| 20260508201601 | 63 | 306 | 0.0 | 5.2 | 0.00 | 0.01 | 0.01 | 60 | 1010.4 |
| 20260508201501 | 63 | 311 | 0.0 | 6.1 | 0.00 | 0.01 | 0.01 | 60 | 1010.4 |
| 20260508201033 | 63 | 311 | 0.0 | 6.1 | 0.00 | 0.01 | 0.01 | 60 | 1010.4 |
| 20260508200600 | 63 | 320 | 0.9 | 6.1 | 0.00 | 0.01 | 0.01 | 57 | 1010.4 |
| 20260508200032 | 64 | 307 | 0.0 | 6.1 | 0.00 | 0.01 | 0.01 | 57 | 1010.7 |
| 20260508195558 | 64 | 146 | 0.9 | 6.1 | 0.00 | 0.01 | 0.01 | 57 | 1010.7 |
| 20260508195502 | 64 | 294 | 0.9 | 6.1 | 0.00 | 0.01 | 0.01 | 58 | 1010.7 |
| 20260508195030 | 64 | 13 | 0.0 | 8.7 | 0.00 | 0.01 | 0.01 | 56 | 1010.7 |
| 20260508194559 | 64 | 11 | 0.0 | 8.7 | 0.00 | 0.01 | 0.01 | 58 | 1011.0 |
| 20260508194020 | 64 | 59 | 0.9 | 7.8 | 0.00 | 0.01 | 0.01 | 56 | 1011.0 |
| 20260508193548 | 64 | 266 | 0.0 | 7.8 | 0.00 | 0.01 | 0.01 | 57 | 1011.0 |
| 20260508193023 | 64 | 173 | 0.0 | 7.8 | 0.00 | 0.01 | 0.01 | 55 | 1011.3 |
| 20260508192546 | 64 | 360 | 0.0 | 5.2 | 0.00 | 0.01 | 0.01 | 57 | 1011.3 |
| 20260508192017 | 64 | 269 | 0.9 | 5.2 | 0.00 | 0.01 | 0.01 | 56 | 1011.3 |
| 20260508191546 | 63 | 20 | 0.0 | 3.5 | 0.00 | 0.01 | 0.01 | 56 | 1011.3 |
| 20260508191020 | 64 | 325 | 0.0 | 6.1 | 0.00 | 0.01 | 0.01 | 54 | 1011.3 |
| 20260508190544 | 64 | 82 | 0.0 | 6.1 | 0.00 | 0.01 | 0.01 | 55 | 1011.3 |
| 20260508190006 | 64 | 69 | 0.0 | 3.5 | 0.00 | 0.01 | 0.01 | 56 | 1011.7 |
| 20260508185537 | 64 | 75 | 0.0 | 4.3 | 0.00 | 0.01 | 0.01 | 58 | 1011.7 |
| 20260508185100 | 63 | 75 | 0.0 | 7.0 | 0.00 | 0.01 | 0.01 | 56 | 1011.7 |
| 20260508184534 | 63 | 99 | 0.9 | 6.1 | 0.00 | 0.01 | 0.01 | 57 | 1011.8 |
| 20260508184102 | 63 | 113 | 0.9 | 5.2 | 0.00 | 0.01 | 0.01 | 57 | 1011.8 |
| 20260508183536 | 63 | 315 | 0.0 | 6.1 | 0.00 | 0.01 | 0.01 | 56 | 1011.8 |
| 20260508183050 | 63 | 102 | 0.0 | 8.7 | 0.00 | 0.01 | 0.01 | 58 | 1012.0 |
| 20260508182514 | 63 | 355 | 0.0 | 8.7 | 0.00 | 0.01 | 0.01 | 59 | 1012.0 |
| 20260508182044 | 63 | 154 | 0.0 | 4.3 | 0.00 | 0.01 | 0.01 | 55 | 1012.0 |
| 20260508181517 | 63 | 101 | 0.9 | 7.8 | 0.00 | 0.01 | 0.01 | 54 | 1012.3 |
| 20260508181048 | 63 | 69 | 0.0 | 5.2 | 0.00 | 0.01 | 0.01 | 55 | 1012.3 |
| 20260508180520 | 64 | 63 | 0.0 | 7.0 | 0.00 | 0.01 | 0.01 | 56 | 1012.3 |
| 20260508180052 | 63 | 65 | 0.0 | 7.0 | 0.00 | 0.01 | 0.01 | 58 | 1012.3 |
| 20260508175522 | 63 | 285 | 0.9 | 7.0 | 0.00 | 0.01 | 0.01 | 57 | 1012.3 |
| 20260508175053 | 62 | 22 | 0.0 | 7.0 | 0.00 | 0.01 | 0.01 | 58 | 1012.3 |
| 20260508174519 | 62 | 219 | 0.0 | 7.0 | 0.00 | 0.01 | 0.01 | 61 | 1012.6 |
| 20260508174040 | 61 | 304 | 0.0 | 5.2 | 0.00 | 0.01 | 0.01 | 59 | 1012.6 |
| 20260508173504 | 62 | 186 | 0.0 | 6.1 | 0.00 | 0.01 | 0.01 | 55 | 1012.6 |
| 20260508173037 | 62 | 117 | 0.9 | 6.1 | 0.00 | 0.01 | 0.01 | 56 | 1012.5 |
| 20260508172503 | 62 | 69 | 0.0 | 5.2 | 0.00 | 0.01 | 0.01 | 58 | 1012.5 |
| 20260508172031 | 62 | 209 | 0.0 | 7.8 | 0.00 | 0.01 | 0.01 | 58 | 1012.5 |
| 20260508171555 | 62 | 310 | 0.0 | 7.8 | 0.00 | 0.01 | 0.01 | 57 | 1012.5 |
| 20260508171024 | 61 | 309 | 0.0 | 4.3 | 0.00 | 0.01 | 0.01 | 62 | 1012.9 |
| 20260508170550 | 61 | 304 | 0.9 | 4.3 | 0.00 | 0.01 | 0.01 | 59 | 1012.9 |
| 20260508170020 | 61 | 294 | 0.0 | 5.2 | 0.00 | 0.01 | 0.01 | 60 | 1013.0 |
| 20260508165555 | 61 | 295 | 0.0 | 4.3 | 0.00 | 0.01 | 0.01 | 62 | 1013.0 |
| 20260508165022 | 60 | 292 | 0.0 | 4.3 | 0.00 | 0.01 | 0.01 | 61 | 1013.0 |
| 20260508164554 | 60 | 287 | 0.0 | 3.5 | 0.00 | 0.01 | 0.01 | 61 | 1013.0 |
| 20260508164018 | 60 | 340 | 0.9 | 3.5 | 0.00 | 0.01 | 0.01 | 64 | 1013.4 |
| 20260508163553 | 60 | 350 | 0.0 | 3.5 | 0.00 | 0.01 | 0.01 | 64 | 1013.4 |
| 20260508163020 | 59 | 285 | 0.0 | 6.1 | 0.00 | 0.01 | 0.01 | 63 | 1013.4 |
| 20260508162548 | 59 | 288 | 0.0 | 6.1 | 0.00 | 0.01 | 0.01 | 64 | 1013.4 |
| 20260508162018 | 60 | 107 | 0.0 | 7.0 | 0.00 | 0.01 | 0.01 | 63 | 1013.4 |
| 20260508161542 | 60 | 108 | 0.0 | 7.0 | 0.00 | 0.01 | 0.01 | 59 | 1013.5 |
| 20260508161004 | 61 | 336 | 0.0 | 4.3 | 0.00 | 0.01 | 0.01 | 59 | 1013.5 |
| 20260508160538 | 61 | 139 | 0.0 | 4.3 | 0.00 | 0.01 | 0.01 | 64 | 1013.5 |
| 20260508160128 | 61 | 42 | 0.0 | 3.5 | 0.00 | 0.01 | 0.01 | 61 | 1013.5 |
| 20260508155532 | 60 | 42 | 0.9 | 5.2 | 0.00 | 0.01 | 0.01 | 59 | 1013.4 |
| 20260508155053 | 61 | 49 | 0.9 | 6.1 | 0.00 | 0.01 | 0.01 | 61 | 1013.4 |
| 20260508154514 | 60 | 341 | 0.0 | 2.6 | 0.00 | 0.01 | 0.01 | 60 | 1013.6 |
| 20260508154041 | 60 | 355 | 0.0 | 1.7 | 0.00 | 0.01 | 0.01 | 59 | 1013.6 |
| 20260508153510 | 60 | 13 | 0.0 | 1.7 | 0.00 | 0.01 | 0.01 | 61 | 1013.6 |
| 20260508153046 | 60 | 13 | 0.0 | 1.7 | 0.00 | 0.01 | 0.01 | 61 | 1013.8 |
| 20260508152509 | 60 | 16 | 0.0 | 0.0 | 0.00 | 0.01 | 0.01 | 60 | 1013.8 |
| 20260508152035 | 60 | 16 | 0.0 | 0.0 | 0.00 | 0.01 | 0.01 | 59 | 1013.8 |
| 20260508151600 | 61 | 16 | 0.0 | 2.6 | 0.00 | 0.01 | 0.01 | 60 | 1013.8 |
| 20260508151030 | 61 | 15 | 0.0 | 5.2 | 0.00 | 0.01 | 0.01 | 64 | 1013.8 |
| 20260508150555 | 61 | 15 | 0.0 | 5.2 | 0.00 | 0.01 | 0.01 | 59 | 1013.8 |
| 20260508150034 | 61 | 355 | 0.0 | 0.9 | 0.00 | 0.01 | 0.01 | 57 | 1013.6 |
| 20260508145553 | 61 | 355 | 0.0 | 0.0 | 0.00 | 0.01 | 0.01 | 64 | 1013.6 |
| 20260508145031 | 61 | 355 | 0.0 | 0.0 | 0.00 | 0.01 | 0.01 | 63 | 1013.6 |
| 20260508144556 | 60 | 355 | 0.0 | 0.0 | 0.00 | 0.01 | 0.01 | 61 | 1013.6 |
| 20260508144029 | 59 | 355 | 0.0 | 0.0 | 0.00 | 0.01 | 0.01 | 60 | 1013.8 |
| 20260508143550 | 59 | 355 | 0.0 | 0.0 | 0.00 | 0.01 | 0.01 | 61 | 1013.8 |
| 20260508143024 | 59 | 355 | 0.0 | 1.7 | 0.00 | 0.01 | 0.01 | 64 | 1013.9 |
| 20260508142545 | 59 | 355 | 0.0 | 1.7 | 0.00 | 0.01 | 0.01 | 59 | 1013.9 |
| 20260508142023 | 59 | 355 | 0.0 | 0.9 | 0.00 | 0.01 | 0.01 | 64 | 1013.9 |
| 20260508141554 | 58 | 355 | 0.0 | 0.9 | 0.00 | 0.01 | 0.01 | 69 | 1014.0 |
| 20260508141015 | 58 | 355 | 0.0 | 0.0 | 0.00 | 0.01 | 0.01 | 73 | 1014.0 |
| 20260508140543 | 58 | 355 | 0.0 | 0.0 | 0.00 | 0.01 | 0.01 | 63 | 1014.0 |
| 20260508140025 | 57 | 355 | 0.0 | 0.0 | 0.00 | 0.02 | 0.01 | 68 | 1014.1 |
| 20260508135549 | 57 | 355 | 0.0 | 0.0 | 0.00 | 0.02 | 0.01 | 75 | 1014.1 |
| 20260508135014 | 57 | 355 | 0.0 | 0.0 | 0.00 | 0.02 | 0.01 | 76 | 1014.1 |
| 20260508134544 | 56 | 355 | 0.0 | 0.0 | 0.00 | 0.02 | 0.01 | 69 | 1014.4 |
| 20260508134008 | 55 | 355 | 0.0 | 0.0 | 0.00 | 0.02 | 0.01 | 78 | 1014.4 |
| 20260508133537 | 55 | 355 | 0.0 | 0.0 | 0.00 | 0.02 | 0.01 | 79 | 1014.4 |
| 20260508133014 | 54 | 355 | 0.0 | 0.0 | 0.00 | 0.02 | 0.01 | 81 | 1014.1 |
| 20260508132535 | 53 | 355 | 0.0 | 0.0 | 0.00 | 0.02 | 0.01 | 81 | 1014.1 |
| 20260508132003 | 52 | 355 | 0.0 | 0.0 | 0.00 | 0.02 | 0.01 | 78 | 1014.1 |
| 20260508131532 | 52 | 355 | 0.0 | 0.0 | 0.00 | 0.02 | 0.01 | 78 | 1014.1 |
| 20260508131100 | 52 | 355 | 0.0 | 0.0 | 0.00 | 0.02 | 0.01 | 80 | 1014.1 |
| 20260508130527 | 51 | 355 | 0.0 | 0.0 | 0.00 | 0.02 | 0.01 | 81 | 1014.1 |
| 20260508130056 | 50 | 355 | 0.0 | 0.0 | 0.00 | 0.08 | 0.01 | 79 | 1014.1 |
| 20260508125525 | 49 | 355 | 0.0 | 0.0 | 0.00 | 0.08 | 0.01 | 79 | 1014.1 |
| 20260508125042 | 48 | 355 | 0.0 | 0.0 | 0.00 | 0.08 | 0.01 | 75 | 1014.1 |
| 20260508124510 | 47 | 355 | 0.0 | 0.0 | 0.00 | 0.08 | 0.01 | 75 | 1013.9 |
| 20260508124039 | 47 | 355 | 0.0 | 0.0 | 0.00 | 0.08 | 0.01 | 76 | 1013.9 |
| 20260508123502 | 47 | 355 | 0.0 | 0.0 | 0.00 | 0.08 | 0.01 | 74 | 1013.9 |
| 20260508123030 | 46 | 355 | 0.0 | 0.0 | 0.00 | 0.08 | 0.01 | 73 | 1013.6 |
| 20260508122549 | 46 | 355 | 0.0 | 0.0 | 0.00 | 0.08 | 0.01 | 71 | 1013.6 |
| 20260508122022 | 46 | 355 | 0.0 | 0.0 | 0.00 | 0.08 | 0.01 | 65 | 1013.6 |
| 20260508121600 | 46 | 355 | 0.0 | 0.0 | 0.00 | 0.08 | 0.01 | 63 | 1013.5 |
| 20260508121025 | 45 | 355 | 0.0 | 0.0 | 0.01 | 0.08 | 0.01 | 60 | 1013.5 |
| 20260508120549 | 45 | 355 | 0.0 | 0.0 | 0.01 | 0.08 | 0.01 | 57 | 1013.5 |
| 20260508120022 | 45 | 355 | 0.0 | 0.0 | 0.01 | 0.17 | 0.01 | 55 | 1013.3 |
| 20260508115548 | 45 | 355 | 0.0 | 0.0 | 0.01 | 0.17 | 0.01 | 54 | 1013.3 |
| 20260508115005 | 44 | 355 | 0.0 | 0.0 | 0.01 | 0.17 | 0.01 | 52 | 1013.3 |
| 20260508114536 | 44 | 355 | 0.0 | 0.0 | 0.01 | 0.17 | 0.01 | 52 | 1013.0 |
| 20260508114059 | 44 | 355 | 0.0 | 0.0 | 0.01 | 0.17 | 0.01 | 51 | 1013.0 |
| 20260508113529 | 44 | 355 | 0.0 | 0.0 | 0.01 | 0.17 | 0.01 | 52 | 1013.0 |
| 20260508113057 | 44 | 355 | 0.0 | 0.0 | 0.01 | 0.17 | 0.01 | 52 | 1013.0 |
| 20260508112527 | 44 | 355 | 0.0 | 0.0 | 0.01 | 0.17 | 0.01 | 53 | 1012.8 |
| 20260508112053 | 44 | 355 | 0.0 | 0.0 | 0.01 | 0.17 | 0.01 | 53 | 1012.8 |
| 20260508111517 | 44 | 355 | 0.0 | 0.0 | 0.00 | 0.16 | 0.00 | 54 | 1012.5 |
| 20260508111055 | 44 | 351 | 0.0 | 0.0 | 0.00 | 0.16 | 0.00 | 54 | 1012.5 |
| 20260508110514 | 44 | 351 | 0.0 | 0.0 | 0.00 | 0.16 | 0.00 | 55 | 1012.5 |
| 20260508110051 | 44 | 351 | 0.0 | 0.0 | 0.00 | 0.25 | 0.00 | 55 | 1012.4 |
| 20260508105509 | 44 | 351 | 0.0 | 0.0 | 0.00 | 0.25 | 0.00 | 56 | 1012.4 |
| 20260508105033 | 44 | 351 | 0.0 | 0.0 | 0.00 | 0.25 | 0.00 | 56 | 1012.4 |
| 20260508104557 | 44 | 351 | 0.0 | 0.0 | 0.00 | 0.25 | 0.00 | 56 | 1012.4 |
| 20260508104017 | 44 | 351 | 0.0 | 0.0 | 0.00 | 0.25 | 0.00 | 56 | 1012.2 |
| 20260508103545 | 44 | 351 | 0.0 | 0.0 | 0.00 | 0.25 | 0.00 | 55 | 1012.2 |
| 20260508103016 | 44 | 351 | 0.0 | 0.0 | 0.00 | 0.25 | 0.00 | 55 | 1011.9 |
| 20260508102537 | 44 | 351 | 0.0 | 0.0 | 0.00 | 0.25 | 0.00 | 55 | 1011.9 |
| 20260508102059 | 44 | 351 | 0.0 | 0.0 | 0.00 | 0.25 | 0.00 | 55 | 1011.9 |
| 20260508101528 | 44 | 351 | 0.0 | 0.0 | 0.00 | 0.25 | 0.00 | 56 | 1011.6 |
| 20260508101051 | 44 | 351 | 0.0 | 0.0 | 0.00 | 0.25 | 0.00 | 57 | 1011.6 |
| 20260508100518 | 44 | 351 | 0.0 | 0.0 | 0.00 | 0.25 | 0.00 | 57 | 1011.6 |
| 20260508100050 | 44 | 351 | 0.0 | 0.0 | 0.00 | 0.27 | 0.00 | 56 | 1011.4 |
| 20260508095531 | 44 | 351 | 0.0 | 0.0 | 0.00 | 0.27 | 0.00 | 56 | 1011.4 |
| 20260508095055 | 44 | 351 | 0.0 | 0.0 | 0.00 | 0.27 | 0.00 | 57 | 1011.4 |
| 20260508094519 | 44 | 351 | 0.0 | 0.0 | 0.00 | 0.27 | 0.00 | 56 | 1011.2 |
| 20260508094049 | 44 | 351 | 0.0 | 0.0 | 0.00 | 0.27 | 0.00 | 56 | 1011.2 |
| 20260508093511 | 44 | 351 | 0.0 | 0.0 | 0.00 | 0.27 | 0.00 | 57 | 1011.2 |
| 20260508093037 | 45 | 351 | 0.0 | 0.0 | 0.00 | 0.27 | 0.00 | 57 | 1011.3 |
| 20260508092505 | 45 | 351 | 0.0 | 0.0 | 0.00 | 0.27 | 0.00 | 57 | 1011.3 |
| 20260508092034 | 45 | 351 | 0.0 | 0.0 | 0.00 | 0.27 | 0.00 | 57 | 1011.3 |
| 20260508091604 | 45 | 351 | 0.0 | 0.0 | 0.00 | 0.27 | 0.00 | 57 | 1011.3 |
| 20260508091029 | 45 | 351 | 0.0 | 0.0 | 0.00 | 0.27 | 0.00 | 56 | 1011.2 |
| 20260508090557 | 45 | 351 | 0.0 | 0.0 | 0.00 | 0.27 | 0.00 | 56 | 1011.2 |
| 20260508090033 | 45 | 351 | 0.0 | 0.0 | 0.00 | 0.27 | 0.00 | 56 | 1011.0 |
| 20260508085500 | 45 | 351 | 0.0 | 0.0 | 0.00 | 0.27 | 0.00 | 55 | 1011.0 |
| 20260508085031 | 45 | 351 | 0.0 | 0.0 | 0.00 | 0.27 | 0.00 | 55 | 1011.0 |
| 20260508084503 | 45 | 351 | 0.0 | 0.0 | 0.00 | 0.27 | 0.00 | 55 | 1011.0 |
| 20260508084035 | 45 | 351 | 0.0 | 0.0 | 0.00 | 0.27 | 0.00 | 54 | 1011.0 |
| 20260508083559 | 46 | 351 | 0.0 | 0.0 | 0.00 | 0.27 | 0.00 | 53 | 1011.0 |
| 20260508083112 | 46 | 351 | 0.0 | 0.0 | 0.00 | 0.27 | 0.00 | 52 | 1010.8 |
| 20260508082557 | 46 | 351 | 0.0 | 0.0 | 0.00 | 0.27 | 0.00 | 52 | 1010.8 |
| 20260508082029 | 45 | 351 | 0.0 | 0.0 | 0.00 | 0.27 | 0.00 | 52 | 1010.8 |
| 20260508081556 | 45 | 351 | 0.0 | 0.0 | 0.00 | 0.27 | 0.00 | 53 | 1010.8 |
| 20260508081016 | 45 | 351 | 0.0 | 0.0 | 0.00 | 0.27 | 0.00 | 52 | 1010.8 |
| 20260508080543 | 45 | 351 | 0.0 | 0.0 | 0.00 | 0.27 | 0.00 | 53 | 1010.8 |
| 20260508080100 | 45 | 351 | 0.0 | 0.0 | 0.00 | 0.28 | 0.00 | 53 | 1010.8 |
| 20260508075532 | 45 | 351 | 0.0 | 0.0 | 0.00 | 0.28 | 0.00 | 55 | 1010.8 |
| 20260508075056 | 45 | 351 | 0.0 | 0.0 | 0.00 | 0.28 | 0.00 | 55 | 1010.8 |
| 20260508074531 | 45 | 351 | 0.0 | 0.0 | 0.00 | 0.28 | 0.00 | 55 | 1010.8 |
| 20260508074050 | 45 | 351 | 0.0 | 0.0 | 0.00 | 0.28 | 0.00 | 54 | 1010.8 |
| 20260508073524 | 45 | 351 | 0.0 | 0.0 | 0.00 | 0.28 | 0.00 | 54 | 1010.8 |
| 20260508073058 | 45 | 351 | 0.0 | 0.0 | 0.00 | 0.28 | 0.00 | 54 | 1010.8 |
| 20260508072520 | 45 | 351 | 0.0 | 0.0 | 0.00 | 0.28 | 0.00 | 54 | 1010.6 |
| 20260508072052 | 45 | 351 | 0.0 | 0.0 | 0.00 | 0.28 | 0.00 | 55 | 1010.6 |
| 20260508071528 | 45 | 351 | 0.0 | 0.0 | 0.00 | 0.28 | 0.00 | 56 | 1010.5 |
| 20260508071052 | 45 | 351 | 0.0 | 0.0 | 0.00 | 0.28 | 0.00 | 56 | 1010.5 |
| 20260508070534 | 45 | 351 | 0.0 | 0.0 | 0.00 | 0.28 | 0.00 | 57 | 1010.5 |
| 20260508070058 | 45 | 351 | 0.0 | 0.0 | 0.00 | 0.30 | 0.00 | 57 | 1010.5 |
| 20260508065525 | 46 | 351 | 0.0 | 0.0 | 0.00 | 0.30 | 0.00 | 56 | 1010.2 |
| 20260508065056 | 46 | 351 | 0.0 | 0.0 | 0.00 | 0.30 | 0.00 | 56 | 1010.2 |
| 20260508064541 | 46 | 351 | 0.0 | 0.0 | 0.00 | 0.30 | 0.00 | 57 | 1010.1 |
| 20260508064052 | 46 | 351 | 0.0 | 0.0 | 0.00 | 0.30 | 0.00 | 58 | 1010.1 |
| 20260508063518 | 46 | 351 | 0.0 | 0.0 | 0.00 | 0.30 | 0.00 | 59 | 1010.1 |
| 20260508063047 | 46 | 351 | 0.0 | 0.0 | 0.00 | 0.30 | 0.00 | 60 | 1010.1 |
| 20260508062510 | 46 | 351 | 0.0 | 0.0 | 0.00 | 0.30 | 0.00 | 60 | 1010.1 |
| 20260508062036 | 46 | 351 | 0.0 | 0.0 | 0.00 | 0.30 | 0.00 | 60 | 1010.1 |
| 20260508061503 | 46 | 351 | 0.0 | 0.0 | 0.00 | 0.30 | 0.00 | 60 | 1010.1 |
| 20260508061033 | 46 | 351 | 0.0 | 0.0 | 0.00 | 0.30 | 0.00 | 61 | 1010.1 |
| 20260508060600 | 46 | 351 | 0.0 | 0.0 | 0.00 | 0.30 | 0.00 | 61 | 1010.1 |
| 20260508060016 | 46 | 351 | 0.0 | 0.0 | 0.00 | 0.37 | 0.00 | 62 | 1010.2 |
| 20260508055542 | 46 | 351 | 0.0 | 0.0 | 0.00 | 0.37 | 0.00 | 63 | 1010.2 |
| 20260508055012 | 46 | 351 | 0.0 | 0.0 | 0.00 | 0.37 | 0.00 | 64 | 1010.2 |
| 20260508054546 | 46 | 351 | 0.0 | 0.0 | 0.00 | 0.37 | 0.00 | 64 | 1010.2 |
| 20260508054014 | 46 | 351 | 0.0 | 0.0 | 0.00 | 0.37 | 0.00 | 65 | 1010.2 |
| 20260508053542 | 46 | 351 | 0.0 | 0.0 | 0.00 | 0.37 | 0.00 | 65 | 1010.2 |
| 20260508053018 | 46 | 351 | 0.0 | 0.0 | 0.00 | 0.37 | 0.00 | 65 | 1010.3 |
| 20260508052540 | 46 | 351 | 0.0 | 0.0 | 0.00 | 0.37 | 0.00 | 66 | 1010.3 |
| 20260508052003 | 46 | 351 | 0.0 | 0.0 | 0.00 | 0.37 | 0.00 | 66 | 1010.3 |
| 20260508051534 | 46 | 351 | 0.0 | 0.0 | 0.00 | 0.37 | 0.00 | 67 | 1010.1 |
| 20260508051003 | 46 | 351 | 0.0 | 0.0 | 0.00 | 0.37 | 0.00 | 68 | 1010.1 |
| 20260508050535 | 46 | 351 | 0.0 | 0.0 | 0.00 | 0.37 | 0.00 | 68 | 1010.1 |
| 20260508045533 | 46 | 351 | 0.0 | 0.0 | 0.00 | 0.45 | 0.00 | 70 | 1010.0 |
| 20260508045056 | 47 | 351 | 0.0 | 0.0 | 0.00 | 0.45 | 0.00 | 70 | 1010.0 |
| 20260508044524 | 47 | 351 | 0.0 | 0.0 | 0.00 | 0.45 | 0.00 | 71 | 1009.9 |
| 20260508044043 | 47 | 351 | 0.0 | 0.0 | 0.00 | 0.45 | 0.00 | 71 | 1009.9 |
| 20260508043519 | 47 | 351 | 0.0 | 0.0 | 0.00 | 0.45 | 0.00 | 72 | 1009.9 |
| 20260508043046 | 47 | 351 | 0.0 | 0.0 | 0.00 | 0.45 | 0.00 | 73 | 1009.9 |
| 20260508042515 | 47 | 351 | 0.0 | 0.0 | 0.00 | 0.45 | 0.00 | 73 | 1009.9 |
| 20260508042051 | 47 | 351 | 0.0 | 0.0 | 0.00 | 0.45 | 0.00 | 74 | 1009.9 |
| 20260508041522 | 47 | 351 | 0.0 | 0.0 | 0.00 | 0.45 | 0.00 | 73 | 1009.8 |
| 20260508041047 | 47 | 351 | 0.0 | 0.0 | 0.00 | 0.45 | 0.00 | 75 | 1009.8 |
| 20260508040510 | 47 | 351 | 0.0 | 0.0 | 0.00 | 0.45 | 0.00 | 74 | 1009.8 |
| 20260508040043 | 48 | 351 | 0.0 | 0.0 | 0.00 | 0.45 | 0.45 | 72 | 1009.8 |
| 20260508035511 | 48 | 351 | 0.0 | 0.0 | 0.00 | 0.45 | 0.45 | 70 | 1009.8 |
| 20260508035035 | 48 | 351 | 0.0 | 0.0 | 0.00 | 0.45 | 0.45 | 69 | 1009.8 |
| 20260508034504 | 48 | 351 | 0.0 | 0.0 | 0.00 | 0.45 | 0.45 | 70 | 1009.8 |
| 20260508034033 | 48 | 351 | 0.0 | 0.0 | 0.00 | 0.45 | 0.45 | 70 | 1009.8 |
| 20260508033602 | 48 | 351 | 0.0 | 0.0 | 0.00 | 0.45 | 0.45 | 70 | 1009.8 |
| 20260508033023 | 48 | 351 | 0.0 | 0.0 | 0.00 | 0.45 | 0.45 | 68 | 1010.0 |
| 20260508032551 | 48 | 351 | 0.0 | 0.0 | 0.00 | 0.45 | 0.45 | 68 | 1010.0 |
| 20260508032019 | 48 | 351 | 0.0 | 0.0 | 0.00 | 0.45 | 0.45 | 67 | 1010.0 |
| 20260508031545 | 48 | 351 | 0.0 | 0.0 | 0.00 | 0.45 | 0.45 | 67 | 1009.8 |
| 20260508031009 | 48 | 351 | 0.0 | 0.0 | 0.00 | 0.45 | 0.45 | 65 | 1009.8 |
| 20260508030541 | 48 | 351 | 0.0 | 0.0 | 0.00 | 0.45 | 0.45 | 66 | 1009.8 |
| 20260508030011 | 48 | 351 | 0.0 | 0.0 | 0.00 | 0.49 | 0.45 | 67 | 1009.7 |
| 20260508025530 | 48 | 351 | 0.0 | 0.0 | 0.00 | 0.49 | 0.45 | 67 | 1009.7 |
| 20260508025057 | 48 | 351 | 0.0 | 0.0 | 0.00 | 0.49 | 0.45 | 68 | 1009.7 |
| 20260508024531 | 48 | 351 | 0.0 | 0.0 | 0.00 | 0.49 | 0.45 | 68 | 1009.2 |
| 20260508024053 | 48 | 351 | 0.0 | 0.0 | 0.00 | 0.49 | 0.45 | 68 | 1009.2 |
| 20260508023530 | 48 | 351 | 0.0 | 0.0 | 0.00 | 0.49 | 0.45 | 68 | 1009.2 |
| 20260508023053 | 49 | 351 | 0.0 | 0.0 | 0.00 | 0.49 | 0.45 | 69 | 1009.1 |
| 20260508022519 | 49 | 351 | 0.0 | 0.0 | 0.00 | 0.49 | 0.45 | 69 | 1009.1 |